Voltar ao catálogo

FENGYUN 1C DEB

AtivoSSO
NORAD 32457·DEBRIS·🇨🇳 China

Lançado May 10, 1999 de Taiyuan Satellite Launch Center

Loading…

Próximas Passagens (próximas 24 horas)

TLE

AtualizadoSource: Space-Track

Época: Sep 11, 2026, 08:05 UTC

1 32457U 99025DBV 26254.33746209  .00000347  00000-0  51853-3 0  9998
2 32457 100.0980 294.2760 0416960  41.5065 321.6944 13.29709394575731

Acompanhe FENGYUN 1C DEB em tempo real com AllMySat

Download on the App Store